GFSMA_con_lsi_336.txt.gz
Lid_Strength_Index
4 4 4 4 4 4 5 4 3 3 2 2 2 2 2 2 2 4 2 -2 -4 -2 -2 -2 -2 -2 -2 -2 -2 -2 -2 -2 -2 -2 -2 -2 -2 -2 -2 -2 -2 -2 -2
4 5 4 5 4 4 4 4 4 2 2 2 2 1 2 2 2 2 2 2 -3 -4 -3 -2 -2 -2 -2 -2 -2 -2 -2 -2 -2 -2 -2 -2 -2 -2 -2 -2 -2 -2 -2
3 4 4 4 3 2 3 3 2 2 3 2 2 2 2 2 2 2 2 3 2 -3 -3 -3 -2 -2 -2 -2 -2 -2 -2 -2 -2 -2 -2 -2 -2 -2 -2 -2 -2 -2 -1
2 3 3 4 3 2 3 3 2 2 3 3 3 2 2 2 2 2 2 2 2 1 -1 -3 -3 -2 -2 -2 -2 -2 -2 -2 -2 -2 -2 -2 -2 -2 -2 -2 -2 -2 -2
1 3 3 4 4 3 3 3 1 3 3 3 2 2 2 3 2 1 2 2 2 1 1 -2 -3 -3 -3 -2 -2 -2 -2 -2 -1 -2 -2 -2 -2 -2 -2 -2 -2 -2 -2
1 2 2 2 3 2 3 3 3 3 3 3 1 2 3 2 3 3 2 1 2 2 2 0 -0 -0 -3 -2 -2 -2 -2 -2 -2 -1 -2 -2 -2 -2 -2 -2 -2 -2 -2
1 1 1 2 3 2 3 3 3 3 3 3 4 3 3 2 3 3 3 2 2 2 2 2 0 0 -0 -2 -2 -2 -2 -2 -2 -2 -2 -2 -2 -2 -2 -2 -2 -2 -2
1 2 2 2 2 3 4 4 3 4 3 3 4 6 6 4 4 3 3 2 2 1 1 1 1 0 0 0 -0 -2 -2 -2 -2 -2 -2 -1 -2 -2 -1 -1 -1 -2 -2
1 2 1 2 3 3 3 3 3 4 4 4 3 5 6 8 6 3 3 3 2 3 2 1 1 0 0 1 -1 -1 -2 -2 -2 -2 -1 -2 -2 -2 -2 -1 -1 -1 -2
1 0 1 1 2 3 3 3 2 3 4 4 4 3 4 4 6 6 4 3 2 2 2 2 1 1 1 1 -1 -2 -2 -2 -2 -2 -2 -2 -2 -2 -2 -2 -2 -2 -2
1 1 1 2 2 3 2 2 3 2 3 4 5 4 4 5 5 5 6 5 3 3 2 2 2 1 1 0 1 -0 -2 -2 -2 -2 -2 -1 -1 -2 -2 -2 -2 -2 -2
2 2 1 2 2 2 2 2 2 2 3 3 3 4 4 5 6 6 5 6 4 3 3 2 2 2 1 0 -1 -1 -2 -2 -2 -2 -2 -2 -2 -1 -2 -2 -2 -2 -2
3 3 2 2 2 2 2 2 3 2 3 3 3 3 4 3 4 5 4 4 4 4 4 2 1 2 2 1 0 -1 -2 -1 -1 -1 -1 -1 -1 -2 -1 -2 -2 -2 -2
2 2 2 2 2 1 1 1 2 2 2 3 3 3 3 3 3 4 4 4 5 4 5 3 4 3 2 2 -0 -1 0 -2 -1 -1 -1 -1 -1 -1 -1 -1 -1 -1 -2
1 1 2 2 1 2 0 1 3 3 3 3 3 3 3 2 3 4 3 4 4 6 6 3 4 3 2 0 0 1 1 -1 -2 -1 -1 -1 -1 -1 -0 -1 -1 -1 -1
1 1 1 1 1 1 1 1 2 3 2 3 2 3 3 3 3 3 4 4 3 5 5 3 3 2 2 1 1 1 1 -1 -1 -1 -1 -1 -0 0 -0 -0 -1 -1 -1
1 2 1 1 1 1 1 1 2 2 1 2 1 2 3 3 3 3 3 3 3 3 4 3 2 4 3 3 2 1 0 0 -0 -2 -1 -0 0 0 0 -0 -0 -1 -1
2 2 2 1 1 1 1 1 2 2 1 2 1 2 3 1 3 3 3 4 4 3 4 5 3 5 4 2 2 0 -0 -1 -0 -1 -0 -0 1 1 1 0 0 0 0
1 1 1 1 1 1 1 1 1 2 2 2 1 1 3 2 3 3 3 3 3 2 4 5 4 4 4 2 1 1 1 1 -0 -1 0 0 1 1 1 1 1 1 1
1 2 2 1 0 0 1 1 1 2 1 1 2 2 2 2 2 4 3 3 4 3 3 3 3 4 3 2 1 2 2 1 1 0 0 0 0 1 1 1 1 1 2
1 1 1 2 1 1 0 1 3 2 3 2 1 2 2 1 -0 1 2 3 4 4 4 4 4 4 3 3 3 2 2 3 4 4 4 4 3 3 2 1 -1 -1 1
1 1 1 1 1 1 2 2 2 2 1 2 1 2 2 1 2 1 1 1 2 3 4 4 4 4 3 3 2 3 4 5 6 5 5 5 4 5 4 3 0 1 2
2 2 1 1 1 2 3 3 2 3 3 3 1 2 2 1 2 2 2 2 2 2 2 3 4 4 4 4 4 5 6 6 6 5 5 6 5 5 4 2 2 2 2
3 2 2 1 2 1 3 4 3 3 3 3 2 3 2 3 4 3 3 2 2 3 2 2 3 3 3 3 3 3 3 2 2 4 3 5 3 4 3 3 2 2 3
3 2 2 2 3 3 4 5 4 2 3 3 2 1 1 2 5 5 1 2 4 5 2 3 4 5 5 4 3 3 4 4 5 4 4 3 2 2 3 2 2 2 3
2 1 1 2 2 1 4 5 5 4 4 3 3 1 2 3 6 5 2 3 5 5 5 5 6 5 5 4 3 3 3 5 5 5 4 3 2 2 4 3 2 2 4

GFSMA_con_lsi_339.txt.gz
Lid_Strength_Index
4 4 4 5 4 4 5 5 5 4 4 4 3 2 2 2 2 3 4 -1 -2 -3 -2 -1 -2 -2 -2 -2 -2 -2 -2 -2 -2 -2 -2 -2 -2 -1 -2 -2 -1 -2 -2
4 4 4 4 4 4 5 6 5 4 4 4 3 2 2 2 2 2 2 3 -1 -2 -3 -2 -2 -2 -2 -2 -2 -2 -2 -2 -2 -1 -2 -2 -2 -2 -2 -2 -2 -2 -2
4 4 4 4 4 3 4 4 3 3 3 3 3 2 2 2 2 2 2 2 2 -1 -2 -2 -3 -2 -2 -2 -2 -2 -2 -2 -2 -2 -2 -2 -1 -2 -2 -2 -2 -2 -2
3 4 4 4 4 3 4 4 4 4 4 4 4 3 2 2 2 2 2 2 2 2 -0 -2 -3 -3 -2 -2 -2 -2 -2 -2 -2 -2 -2 -2 -2 -2 -2 -2 -2 -2 -2
2 3 3 3 4 4 3 4 3 4 4 3 3 2 2 3 3 2 2 2 2 2 2 -1 -2 -3 -3 -2 -2 -2 -2 -2 -2 -2 -2 -2 -2 -2 -2 -2 -2 -2 -2
1 2 3 3 3 3 3 4 4 3 3 3 2 2 3 3 3 3 3 2 2 2 2 2 1 -0 -2 -3 -3 -2 -2 -2 -2 -2 -2 -2 -2 -2 -2 -2 -2 -2 -1
2 3 3 2 3 3 3 3 3 3 4 4 4 4 3 4 4 3 3 3 2 2 1 2 3 0 -0 -3 -2 -3 -2 -2 -2 -2 -1 -1 -2 -2 -2 -2 -2 -2 -2
2 2 2 3 3 3 3 4 3 4 4 4 4 6 6 4 4 3 3 3 3 2 2 1 1 1 0 0 -0 -2 -2 -2 -2 -2 -2 -1 -1 -2 -2 -2 -2 -2 -2
2 2 2 3 3 4 4 4 3 4 4 3 4 4 7 8 6 4 3 3 3 3 3 2 2 0 0 0 -1 -1 -2 -2 -2 -2 -2 -2 -2 -2 -2 -2 -1 -1 -1
2 1 2 2 3 3 4 3 2 3 4 4 4 3 4 5 6 6 5 4 3 3 3 2 2 1 1 1 -1 -1 -2 -3 -2 -2 -2 -2 -1 -2 -2 -2 -2 -1 -1
2 1 1 2 2 3 3 3 3 3 4 4 5 5 5 5 5 5 6 5 4 3 3 3 2 2 1 1 1 -0 -1 -2 -3 -2 -2 -2 -2 -2 -2 -2 -2 -2 -2
3 2 1 2 2 3 3 3 3 3 3 4 4 4 4 5 6 6 5 4 5 4 3 2 3 3 2 1 -0 -1 -1 -1 -2 -2 -2 -2 -2 -1 -1 -1 -2 -2 -2
2 2 1 2 2 2 2 2 3 3 3 4 3 4 4 4 4 5 5 4 4 4 3 3 3 2 2 2 1 -1 -1 -2 -1 -1 -2 -1 -2 -2 -1 -1 -1 -2 -2
2 1 1 2 2 2 2 2 2 3 2 3 3 3 4 4 4 4 4 4 5 4 6 4 2 4 3 3 1 -2 0 -1 -1 -1 -1 -1 -1 -1 -1 -1 -1 -1 -1
1 1 1 2 1 1 1 1 2 3 3 3 3 3 4 4 4 4 4 3 4 6 5 6 3 3 3 3 0 1 1 -1 -2 -1 -1 -1 -1 -1 -2 -1 -0 -0 -1
2 1 1 2 1 1 1 2 2 3 3 3 2 3 4 4 4 4 4 5 2 3 5 5 4 3 2 1 0 1 1 -1 -1 -1 -1 -1 -0 -0 -1 -0 -1 -1 -1
2 2 1 1 1 2 1 2 2 1 3 2 1 1 2 3 3 4 4 4 3 3 4 3 2 4 2 3 2 2 1 1 1 -1 -1 -0 0 0 0 -0 0 -1 -1
1 2 2 2 2 1 1 2 1 1 2 2 2 1 3 2 4 3 3 3 4 3 3 4 2 3 2 1 1 1 0 -0 0 -1 -1 -0 0 0 1 0 -0 0 0
1 1 2 2 1 1 1 1 1 1 2 1 2 2 2 4 3 3 3 2 3 2 3 3 3 3 3 1 1 1 1 0 -1 -1 -1 -0 -0 1 1 1 1 1 2
2 2 2 2 1 1 1 1 1 2 3 2 1 2 3 4 3 4 3 3 3 3 3 4 5 5 4 1 1 2 3 2 2 0 0 0 1 1 1 0 1 1 2
1 1 1 2 1 1 1 1 1 3 3 3 2 1 2 2 -1 1 2 4 3 3 3 4 5 5 3 3 3 2 2 3 3 3 2 3 1 1 1 0 -1 0 2
1 1 1 1 1 1 2 1 2 3 2 2 2 2 2 1 2 1 1 2 2 3 3 5 3 4 3 2 2 2 3 3 4 3 4 4 3 4 3 3 1 2 2
3 2 2 1 2 2 3 3 2 3 3 3 2 1 3 2 2 2 2 2 2 2 2 3 3 4 4 4 3 5 5 7 6 5 5 6 6 5 4 2 2 2 2
4 4 2 2 2 2 3 4 3 3 4 3 2 2 3 4 4 2 1 2 3 3 2 1 2 3 2 3 4 4 5 5 5 5 5 7 6 6 5 4 2 2 3
5 3 2 1 2 2 3 4 4 3 3 4 3 2 2 3 6 5 2 4 5 4 3 3 4 4 4 4 3 3 5 4 5 6 4 4 4 5 4 4 4 2 3
3 2 1 1 2 3 4 6 4 3 3 4 4 3 2 3 6 5 1 4 6 5 5 5 5 5 4 4 3 4 4 5 6 5 3 3 3 2 4 3 2 3 4

GFSMA_con_lsi_342.txt.gz
Lid_Strength_Index
3 3 3 3 3 3 3 3 3 2 2 2 2 2 2 2 1 1 2 -1 -2 -2 -2 -1 -1 -1 -1 -1 -2 -2 -2 -2 -2 -2 -2 -2 -2 -2 -2 -1 -1 -1 -2
3 3 3 2 3 2 2 3 3 2 3 3 3 2 2 2 2 1 1 1 -1 -2 -2 -2 -2 -2 -2 -2 -2 -2 -2 -2 -2 -2 -2 -2 -2 -2 -1 -1 -1 -2 -2
2 1 2 2 2 2 1 2 2 2 2 2 2 2 1 0 0 1 1 0 0 -1 -2 -2 -2 -2 -2 -2 -2 -2 -2 -2 -2 -2 -2 -2 -2 -2 -2 -2 -2 -2 -2
2 2 3 2 1 2 2 3 2 2 2 2 2 2 1 1 1 1 1 0 0 0 -0 -2 -2 -2 -3 -2 -2 -2 -2 -2 -2 -2 -2 -2 -2 -2 -2 -2 -2 -2 -2
1 2 2 1 1 2 2 2 2 2 2 2 2 1 1 1 1 1 1 1 0 0 0 -1 -2 -2 -2 -3 -2 -2 -2 -2 -2 -2 -2 -2 -2 -2 -2 -2 -2 -2 -2
1 1 2 2 1 1 2 2 2 2 2 1 1 1 1 1 1 1 1 1 0 0 -0 -0 -0 -1 -2 -2 -3 -2 -2 -2 -2 -2 -2 -1 -2 -2 -2 -2 -2 -2 -2
1 1 1 2 1 2 2 2 2 2 1 1 2 2 1 2 2 1 1 1 0 0 -0 -0 -1 -1 -1 -2 -2 -2 -3 -2 -2 -2 -2 -1 -2 -2 -2 -2 -2 -2 -2
2 2 2 2 2 2 2 2 2 2 2 1 2 4 5 3 2 1 1 0 1 1 0 -0 -0 -1 -1 -2 -2 -2 -2 -3 -2 -2 -2 -2 -2 -2 -2 -2 -2 -2 -2
1 2 1 2 2 2 2 2 3 3 2 2 1 3 5 6 4 2 1 1 1 1 0 0 -0 -1 -1 -1 -2 -2 -2 -3 -2 -2 -3 -2 -2 -2 -2 -2 -2 -2 -2
1 1 1 1 1 2 2 2 2 2 2 2 2 2 2 2 5 6 2 1 1 1 -0 0 -0 -0 -1 -2 -2 -2 -1 -2 -3 -3 -3 -3 -2 -2 -2 -2 -2 -2 -2
1 -0 0 1 1 1 1 2 2 2 2 2 2 2 3 3 3 4 6 4 1 0 0 1 -0 -0 -1 -1 -2 -1 -1 -2 -2 -3 -2 -2 -2 -2 -1 -2 -2 -2 -2
1 1 0 1 1 1 1 1 1 2 2 2 2 2 2 3 3 4 5 4 4 2 1 0 0 -0 -0 -1 -1 -1 -1 -1 -1 -2 -2 -2 -2 -2 -2 -1 -2 -2 -2
2 1 1 1 1 1 1 1 2 2 2 2 2 2 2 2 1 2 3 4 4 2 2 1 1 0 0 -0 -1 -2 -1 -1 -1 -1 -1 -2 -2 -2 -2 -1 -1 -2 -2
2 0 -0 0 1 1 1 1 1 1 1 1 2 2 1 1 2 2 2 3 5 4 2 2 1 1 -0 -0 -0 -1 -2 -1 -1 -1 -1 -1 -1 -2 -2 -2 -1 -1 -1
1 0 -0 0 -0 1 1 0 1 1 1 1 1 1 1 1 2 2 2 2 3 6 5 3 2 -0 -0 -1 -0 -1 -1 -1 -1 -1 -1 -1 -1 -1 -1 -1 -1 -0 -1
1 1 1 0 0 0 1 1 1 1 1 1 1 2 1 1 1 2 2 2 2 3 5 2 1 0 -0 -0 -1 -1 -1 -1 -1 -1 -1 -1 -1 -0 -1 -0 -1 -1 -1
1 1 0 0 1 0 0 1 1 1 1 1 1 1 1 1 1 1 2 2 3 3 4 2 1 1 1 0 -0 -1 -1 -1 -1 -1 -1 -1 -0 0 -0 -0 -1 -1 -1
1 1 1 1 1 1 1 1 1 1 1 1 1 1 1 1 1 1 2 2 2 2 3 4 2 2 1 0 1 0 -0 -1 -1 -1 -1 -0 0 1 0 0 -0 -0 1
1 1 1 1 1 1 1 0 1 1 1 1 1 1 1 1 1 1 1 1 1 2 2 3 3 1 2 1 1 0 0 -0 -1 -1 -1 -0 0 0 1 1 1 1 1
1 1 0 1 1 0 0 1 1 1 1 1 1 1 1 1 2 1 1 1 2 3 3 3 3 3 2 1 1 2 3 1 1 -1 -1 -0 0 1 1 0 0 1 2
1 0 1 1 1 1 1 1 1 1 1 1 1 0 0 1 -0 -0 1 2 3 3 3 3 3 3 3 3 3 2 2 2 2 1 1 1 0 0 -0 -0 -0 0 2
1 1 1 1 1 1 2 2 1 1 1 1 1 1 0 0 1 1 1 1 1 3 3 3 2 3 3 2 2 2 2 3 4 2 1 3 1 1 0 -0 2 2 3
2 2 2 2 1 1 3 3 2 1 1 1 1 1 1 1 1 1 2 2 2 2 1 1 2 2 2 1 2 3 4 3 3 3 2 4 2 2 1 1 2 3 3
2 3 2 1 2 1 3 4 3 1 1 1 1 0 1 2 3 2 1 2 3 3 1 1 1 1 0 1 1 2 2 3 3 3 3 3 2 1 1 -0 2 2 3
2 2 1 1 1 1 3 4 3 1 2 1 1 0 1 1 5 5 1 4 3 3 3 4 4 5 5 4 2 1 3 2 3 3 1 2 2 2 2 1 1 2 3
2 1 1 1 1 1 4 5 3 1 2 2 2 1 2 1 6 5 1 3 4 3 2 2 2 2 2 2 3 -0 1 2 2 3 1 2 1 1 3 -0 1 1 0

GFSMA_con_lsi_345.txt.gz
Lid_Strength_Index
-1 -1 -1 -0 -0 -1 -1 -1 -1 -1 -1 -0 -1 -0 0 -0 -1 -1 -0 -1 -2 -2 -2 -2 -1 -1 -1 -2 -2 -2 -2 -2 -2 -2 -2 -2 -2 -2 -2 -2 -2 -2 -2
-1 -1 -1 -1 -1 -1 -2 -1 -1 -1 -1 -1 -0 -0 -0 0 -0 -1 -0 -0 -1 -2 -2 -2 -2 -2 -2 -2 -2 -2 -2 -2 -2 -2 -2 -2 -2 -2 -2 -2 -2 -1 -1
-1 -2 -1 -1 -1 -2 -2 -1 -1 -1 -1 -1 -1 -1 -0 -0 -0 -1 -1 -0 -0 -1 -2 -2 -2 -2 -2 -2 -2 -2 -2 -2 -2 -2 -2 -2 -2 -2 -2 -2 -1 -1 -2
-2 -2 -1 -1 -2 -2 -1 -1 -1 -0 -0 -0 -0 -0 -0 -1 -1 -1 -2 -2 -2 -1 -2 -2 -2 -2 -2 -2 -2 -2 -2 -2 -2 -2 -2 -2 -2 -2 -2 -2 -2 -2 -2
-0 -1 -1 -1 -2 -1 -1 -1 -1 -0 0 0 -0 -0 -1 -0 -1 -0 -1 -1 -2 -2 -2 -2 -2 -2 -2 -2 -2 -2 -2 -2 -2 -2 -2 -2 -2 -2 -2 -2 -2 -2 -2
-1 -1 -1 -1 -1 -1 -0 -1 -0 -1 -0 0 0 0 -0 -1 -1 -1 -1 -1 -2 -2 -2 -2 -2 -2 -1 -2 -2 -3 -2 -2 -2 -2 -2 -2 -2 -2 -2 -2 -2 -2 -2
-2 -2 -1 -1 -1 -0 -1 -1 -0 0 0 -0 1 1 0 -0 -0 -1 -1 -1 -1 -2 -2 -2 -2 -2 -2 -1 -2 -2 -2 -2 -2 -2 -2 -2 -2 -2 -2 -2 -2 -2 -2
-2 -1 -1 -0 -1 -0 -1 -0 -0 1 1 -0 2 2 4 2 -0 -0 -0 -1 -1 -2 -1 -2 -2 -2 -2 -2 -2 -2 -2 -2 -3 -3 -2 -2 -2 -2 -2 -2 -2 -2 -2
-1 -2 -1 -0 -1 -0 0 -1 -0 0 2 0 0 2 4 5 3 -0 0 -0 -0 -0 -1 -1 -2 -2 -2 -2 -2 -2 -2 -2 -2 -3 -3 -3 -2 -2 -2 -2 -2 -2 -2
-1 -2 -2 -1 -1 -1 -0 0 -0 -0 0 2 1 0 0 1 4 4 1 1 -0 -0 -1 -1 -1 -2 -2 -2 -2 -2 -2 -1 -2 -3 -3 -3 -2 -2 -2 -2 -2 -2 -2
-1 -1 -1 -1 -1 -0 -1 -0 -0 -0 0 1 1 1 1 1 1 4 5 3 1 0 -0 -1 -1 -1 -2 -2 -2 -2 -2 -1 -1 -2 -2 -3 -2 -2 -2 -2 -2 -2 -2
-0 -1 -1 -1 -1 -1 -0 -0 -0 -0 -0 0 0 1 2 2 2 3 4 3 3 1 0 -0 -1 -1 -1 -2 -2 -2 -2 -1 -1 -1 -2 -3 -2 -2 -2 -2 -2 -2 -2
0 -0 -1 -1 -0 -1 -1 -1 -0 0 -0 1 1 1 1 1 1 1 2 3 3 2 1 -0 -0 -1 -1 -2 -2 -1 -1 -2 -1 -1 -1 -2 -2 -3 -2 -2 -2 -2 -2
0 -1 -1 -1 -1 -1 -1 -1 0 0 -0 0 0 0 1 0 0 1 2 3 4 3 2 2 -0 -1 -1 -1 -2 -1 -2 -2 -2 -1 -1 -1 -2 -2 -2 -2 -1 -1 -1
-0 -1 -1 -1 -1 -1 -1 -1 0 0 -0 0 0 0 0 0 0 1 0 1 3 6 4 2 2 -1 -1 -2 -1 -2 -2 -2 -2 -1 -1 -1 -1 -1 -1 -1 -1 -1 -1
-1 -0 -1 -1 -1 -1 -1 -0 0 -0 1 0 0 0 0 0 0 0 0 1 1 3 5 2 1 -0 -1 -1 -1 -2 -2 -1 -1 -1 -1 -1 -1 -1 -1 -1 -1 -1 -1
-0 -0 -0 -0 -0 -0 -0 0 -0 0 0 1 0 0 0 0 0 0 0 1 1 2 4 2 1 -0 -0 -0 -0 -1 -1 -1 -1 -1 -1 -1 -0 -0 -0 -0 -0 -1 -1
-0 -1 -0 -0 0 1 0 0 0 0 0 1 1 0 0 0 1 0 0 1 1 1 2 4 2 1 1 -0 -0 -0 -1 -2 -1 -1 -1 -0 -0 0 0 0 -0 0 0
0 -1 -0 0 1 0 0 -0 0 0 0 0 0 0 0 0 0 0 0 1 1 1 1 3 3 1 1 0 0 -0 0 -1 -2 -1 -0 -0 0 1 1 1 0 1 2
0 -0 -0 -0 0 1 0 -0 -0 -0 0 0 0 0 0 0 0 0 1 1 1 2 2 3 3 2 2 1 0 1 2 0 0 -1 -1 -0 -0 1 1 0 1 1 2
1 0 -0 -0 0 0 0 0 -0 1 0 1 0 -0 -0 -0 -0 0 1 1 1 2 2 3 2 2 2 3 3 2 2 2 1 -0 0 -0 -0 -1 -1 -0 -1 1 2
2 0 0 0 1 1 2 2 0 0 0 0 0 0 -0 -0 0 0 1 1 2 3 2 2 2 3 3 2 1 2 2 3 4 0 1 2 -1 0 -0 -1 1 2 3
2 0 0 0 0 1 2 3 2 -0 0 0 0 0 0 0 0 0 1 2 2 2 1 1 2 2 2 1 1 2 2 2 3 1 1 3 1 1 -1 1 3 3 3
1 1 1 0 0 1 3 4 3 0 0 -0 -0 -0 0 0 0 0 1 2 2 0 -0 -0 -0 0 0 0 0 1 1 2 2 2 0 3 0 1 -1 -1 3 3 3
1 1 1 0 1 1 3 4 3 0 0 0 -0 0 0 -0 5 4 1 3 1 1 3 4 4 4 5 3 1 0 1 2 2 2 1 1 2 1 -0 -0 -1 2 3
0 1 1 0 1 1 3 5 3 1 1 1 0 -0 2 1 6 5 1 2 2 1 0 0 -0 1 1 1 3 -1 1 2 2 2 -0 2 1 1 2 0 -0 -1 -1